DateTimeUTC,F1_A11,F1_S11,BsB_S11,BsG_S11,BsR_S11,BbsB_S11,BbsG_S11,BbsR_S11,BaB_A11,BaG_A11,BaR_A11,Tu_S11,T_S11,Uu_S11,U_S11,P_S11,T1_A11
2021-07-02T11:00:00Z,00000200,20000000,,,,,,,0000.34,0000.14,-000.13,18.3,24.8,04.8,03.2,0673.4,31.1
2021-07-02T11:01:00Z,00000200,20000000,,,,,,,-000.04,0000.16,0000.17,18.3,24.8,04.8,03.2,0673.4,31.1
2021-07-02T11:02:00Z,00000200,20000000,,,,,,,0000.39,-000.05,-000.01,18.2,24.8,04.8,03.2,0673.4,31.1
2021-07-02T11:03:00Z,00000200,60000000,,,,,,,-000.05,0000.08,0000.13,18.2,24.8,04.8,03.2,0673.4,31.1
2021-07-02T11:04:00Z,00000200,40000000,0000.72,0000.63,0000.24,0000.45,0000.35,0000.35,-000.04,-000.08,0000.20,18.3,24.6,04.9,03.3,0674.3,31.0
2021-07-02T11:05:00Z,00000200,00000000,0000.83,0000.41,0000.23,0000.68,0000.28,0000.19,0000.24,0000.12,-000.36,18.3,24.6,04.9,03.3,0674.4,31.0
2021-07-02T11:06:00Z,00000200,00000000,0000.51,0000.24,0000.50,0000.18,0000.35,0000.10,0000.01,0000.09,0000.44,18.2,24.5,05.1,03.5,0674.4,31.0
2021-07-02T11:07:00Z,00000200,00000000,0001.16,0000.32,0000.30,0000.78,-000.04,-000.09,-000.00,0000.25,0000.11,18.2,24.5,05.1,03.5,0674.4,31.0
2021-07-02T11:08:00Z,00000200,00000000,0000.86,0000.02,0000.17,0000.05,0000.09,0000.27,0000.69,-000.01,0000.08,18.2,24.5,05.2,03.6,0674.4,31.0
2021-07-02T11:09:00Z,00000200,00000000,0001.45,0000.29,0000.32,0000.46,-000.03,0000.27,0000.02,0000.41,0000.06,18.2,24.5,05.3,03.6,0674.4,31.0
2021-07-02T11:10:00Z,00000200,00000000,0000.72,0000.36,0000.02,0000.54,0000.27,0000.06,0000.12,-000.01,0000.07,18.3,24.5,05.2,03.6,0674.4,31.1
2021-07-02T11:11:00Z,00000200,00000000,0001.44,0000.57,0000.42,-000.07,0000.15,0000.08,-000.09,-000.27,0000.27,18.3,24.6,05.3,03.6,0674.4,31.1
2021-07-02T11:12:00Z,00000200,00000000,0001.22,0000.31,0000.41,0000.18,0000.17,0000.11,0000.27,0000.11,0000.06,18.4,24.6,05.3,03.6,0674.4,31.1
2021-07-02T11:13:00Z,00000200,00000000,0000.23,0000.29,0000.28,0000.68,0000.29,0000.03,0000.02,0000.32,0000.04,18.3,24.6,05.3,03.6,0674.4,31.1
2021-07-02T11:14:00Z,00000200,00000000,0001.08,0000.10,0000.22,0000.01,0000.20,0000.01,0000.26,0000.30,-000.01,18.3,24.6,05.4,03.7,0674.3,31.1
2021-07-02T11:15:00Z,00000200,00000000,0000.86,0000.36,0000.16,0001.24,0000.09,0000.02,-000.08,0000.09,0000.17,18.3,24.5,05.3,03.6,0674.3,31.1
2021-07-02T11:16:00Z,00000200,00000000,0001.19,0000.51,-000.03,0000.49,0000.19,0000.05,0000.29,-000.09,0000.12,18.3,24.5,05.4,03.7,0674.3,31.0
2021-07-02T11:17:00Z,00000200,00000000,0000.94,0000.20,0000.34,0000.18,0000.33,0000.37,0000.10,0000.12,-000.10,18.2,24.5,05.3,03.6,0674.3,31.0
2021-07-02T11:18:00Z,00000200,00000000,0000.63,0000.26,0000.26,0000.17,0000.40,0000.37,0000.25,0000.35,-000.03,18.2,24.5,05.4,03.7,0674.3,31.0
2021-07-02T11:19:00Z,00000200,00000000,0000.48,0000.12,0000.21,0000.58,0000.12,0000.27,0000.22,-000.02,0000.45,18.2,24.4,05.5,03.7,0674.3,31.0
2021-07-02T11:20:00Z,00000200,00000000,0001.21,0000.04,0000.19,0000.14,0000.06,0000.04,-000.21,0000.03,-000.24,18.1,24.4,05.4,03.7,0674.3,31.0
2021-07-02T11:21:00Z,00000200,00000000,0000.50,0000.31,0000.31,-000.08,0000.05,0000.20,0000.22,-000.10,0000.07,18.1,24.4,05.6,03.8,0674.3,31.0
2021-07-02T11:22:00Z,00000200,00000000,0000.67,0000.08,0000.39,0000.07,0000.21,0000.24,0000.31,0000.24,0000.36,18.1,24.4,05.5,03.8,0674.3,31.0
2021-07-02T11:23:00Z,00000200,00000000,0000.69,0000.27,0000.44,0000.55,0000.02,0000.08,0000.29,0000.17,0000.11,18.1,24.4,05.5,03.7,0674.3,31.0
2021-07-02T11:24:00Z,00000200,00000000,0000.48,0000.04,0000.30,0001.24,0000.31,0000.17,-000.33,-000.06,-000.18,18.2,24.4,05.4,03.7,0674.3,31.1
2021-07-02T11:25:00Z,00000200,00000000,0000.95,0000.12,0000.33,0000.42,-000.05,0000.28,0000.05,0000.19,0000.26,18.2,24.4,05.5,03.7,0674.3,31.1
2021-07-02T11:26:00Z,00000200,00000000,0000.54,0000.36,0000.16,0000.19,0000.25,0000.10,0000.47,0000.25,-000.00,18.3,24.5,05.5,03.7,0674.3,31.1
2021-07-02T11:27:00Z,00000200,00000000,0001.01,0000.16,0000.26,0000.63,0000.08,0000.00,-000.14,0000.22,0000.17,18.4,24.5,05.4,03.7,0674.3,31.1
2021-07-02T11:28:00Z,00000200,00000000,0001.00,0000.41,-000.03,0000.52,0000.16,-000.08,0000.44,0000.05,0000.11,18.5,24.6,05.5,03.8,0674.3,31.1
2021-07-02T11:29:00Z,00000200,00000000,0001.22,0000.44,0000.04,0000.79,0000.11,0000.11,-000.59,0000.12,-000.13,18.5,24.6,05.4,03.7,0674.3,31.1
2021-07-02T11:30:00Z,00000200,00000000,0000.89,0000.39,0000.22,0000.36,0000.19,-000.05,0000.19,0000.16,0000.07,18.5,24.6,05.4,03.7,0674.4,31.1
2021-07-02T11:31:00Z,00000200,00000000,0000.43,0000.09,0000.25,-000.20,0000.05,0000.29,0000.36,-000.13,0000.34,18.5,24.6,05.5,03.8,0674.4,31.1
2021-07-02T11:32:00Z,00000200,00000000,0001.29,0000.25,0000.22,0000.58,0000.03,0000.12,-000.13,0000.22,-000.12,18.4,24.6,05.4,03.7,0674.3,31.1
2021-07-02T11:33:00Z,00000200,00000000,0001.18,0000.30,0000.04,0000.75,0000.18,0000.12,0000.32,0000.07,-000.05,18.4,24.6,05.4,03.7,0674.3,31.1
2021-07-02T11:34:00Z,00000200,00000000,0001.02,0000.17,0000.57,0000.42,0000.11,0000.18,-000.14,-000.33,0000.06,18.4,24.6,05.4,03.7,0674.3,31.1
2021-07-02T11:35:00Z,00000200,00000000,0000.63,0000.02,0000.13,0000.34,0000.52,0000.04,0000.15,0000.52,0000.07,18.4,24.5,05.4,03.7,0674.3,31.0
2021-07-02T11:36:00Z,00000200,00000000,0000.88,0000.13,0000.51,0000.13,0000.30,0000.21,0000.37,0000.06,0000.29,18.3,24.5,05.4,03.7,0674.4,31.0
2021-07-02T11:37:00Z,00000200,00000000,0001.21,0000.02,0000.68,-000.21,0000.30,0000.43,0000.00,0000.19,0000.10,18.3,24.5,05.5,03.8,0674.4,31.0
2021-07-02T11:38:00Z,00000200,00000000,0001.26,0000.42,0000.06,0000.66,0000.11,0000.15,0000.26,-000.04,0000.03,18.3,24.5,05.4,03.7,0674.4,31.1
2021-07-02T11:39:00Z,00000200,00000000,0001.12,0000.49,-000.15,0000.57,0000.12,-000.02,0000.06,-000.17,0000.00,18.3,24.5,05.5,03.8,0674.3,31.1
2021-07-02T11:40:00Z,00000200,00000000,0000.98,0000.40,0000.58,0000.56,0000.53,0000.04,0000.23,0000.12,0000.36,18.4,24.5,05.4,03.7,0674.4,31.1
2021-07-02T11:41:00Z,00000200,00000000,0001.20,0000.28,0000.43,0000.66,0000.31,0000.12,-000.01,0000.25,-000.15,18.4,24.6,05.4,03.7,0674.3,31.1
2021-07-02T11:42:00Z,00000200,00000000,0000.21,0000.23,0000.53,0000.35,0000.21,0000.38,-000.19,0000.06,-000.12,18.5,24.6,05.4,03.7,0674.4,31.1
2021-07-02T11:43:00Z,00000200,00000000,0000.63,0000.38,0000.10,-000.04,0000.12,0000.30,0000.22,0000.08,0000.30,18.5,24.6,05.5,03.8,0674.4,31.1
2021-07-02T11:44:00Z,00000200,00000000,0000.68,0000.36,0000.50,0000.64,0000.29,0000.20,0000.07,0000.29,0000.14,18.5,24.6,05.4,03.7,0674.4,31.1
2021-07-02T11:45:00Z,00000200,00000000,0001.74,0000.28,0000.17,0000.37,0000.19,-000.16,-000.02,-000.50,-000.07,18.5,24.6,05.5,03.7,0674.4,31.1
2021-07-02T11:46:00Z,00000200,00000000,0001.06,0000.07,0000.44,0000.26,0000.17,0000.24,0000.45,0000.39,-000.07,18.4,24.6,05.5,03.8,0674.4,31.1
2021-07-02T11:47:00Z,00000200,00000000,0001.19,0000.24,0000.16,0000.50,0000.08,0000.27,-000.18,0000.28,0000.15,18.4,24.6,05.5,03.8,0674.4,31.1
2021-07-02T11:48:00Z,00000200,00000000,0000.60,0000.04,0000.21,0000.43,0000.25,0000.28,0000.05,-000.18,0000.28,18.4,24.6,05.5,03.8,0674.4,31.1
2021-07-02T11:49:00Z,00000200,00000000,0000.52,0000.26,-000.09,0000.23,0000.09,0000.11,0000.25,0000.25,-000.20,18.4,24.5,05.5,03.8,0674.3,31.0
2021-07-02T11:50:00Z,00000200,00000000,0000.95,0000.22,0000.52,0000.27,0000.11,0000.05,-000.11,-000.03,0000.31,18.3,24.5,05.6,03.8,0674.3,31.0
2021-07-02T11:51:00Z,00000200,00000000,0001.28,0000.25,0000.39,0000.04,0000.25,0000.19,0000.44,0000.13,0000.18,18.3,24.5,05.5,03.7,0674.3,31.0
2021-07-02T11:52:00Z,00000200,00000000,0001.65,0000.20,0000.21,0000.40,0000.19,-000.10,-000.14,-000.11,-000.03,18.3,24.5,05.7,03.9,0674.3,31.1
2021-07-02T11:53:00Z,00000200,00000000,0000.95,0000.64,0000.20,0000.42,0000.08,0000.15,-000.03,0000.34,-000.17,18.3,24.5,05.6,03.8,0674.3,31.1
2021-07-02T11:54:00Z,00000200,00000000,0001.71,0000.28,0000.25,0000.75,0000.30,-000.02,0000.31,0000.27,0000.29,18.3,24.5,05.6,03.8,0674.3,31.1
2021-07-02T11:55:00Z,00000200,00000000,-000.20,0000.00,0000.18,0000.48,-000.02,-000.15,0000.28,0000.34,-000.06,18.4,24.5,05.6,03.8,0674.3,31.1
2021-07-02T11:56:00Z,00000200,00000000,0001.24,0000.17,0000.00,0000.72,0000.25,-000.22,0000.16,0000.14,0000.18,18.5,24.6,05.6,03.9,0674.3,31.1
2021-07-02T11:57:00Z,00000200,40000000,,,,,,,0000.11,-000.31,0000.13,18.6,24.7,05.7,03.9,0674.4,31.1
2021-07-02T11:58:00Z,00000200,60000000,,,,,,,0000.07,0000.33,-000.21,18.5,24.9,05.4,03.7,0673.3,31.1
2021-07-02T11:59:00Z,00000200,20000000,,,,,,,-000.46,-000.26,0000.03,18.5,25.0,05.2,03.5,0673.3,31.2
